Showing default

COSMOS 2254, 22689

Orbit data source: Space-Track

COSMOS 2254, 22689 is a payload satellite owned by VKS (CIS) in LEO that was launched on Thu, 24 Jun 1993 UTC via a TSIKLON-3 launch vehicle from the Plesetsk Missile And Space Complex (PKMTR). Payload-class satellites include a variety of spacecraft equipped with specific instruments for various scientific and technological missions. These include communications satellites like Starlink; space stations such as the ISS; scientific satellites like the Hubble; Earth observation satellites from companies like Planet Labs, Umbra, and HawkEye 360; GPS; miniature CubeSats for education and research; and military/defense satellites.

Loading next visibility...
Identifier
22689, 1993-038C
Orbit
LEO
Country
Flag of CISCIS
Related business
Manufacturer
NPO PM
Mission
Defense Communications
Bus & Motor
STRELA-3, Unknown motor
Mass
225 kg wet, 225 kg dry
Launch date (UTC)
1993-06-24 (32 years ago)
Launch vehicle
TSIKLON-3
Launch site
Plesetsk Missile And Space Complex (PKMTR)
Object type
Payload
Rocket body
Debris
Shape & HBR
Cyl, 0.8 m
Radar Cross Section
1.257 m², Large (>1 m²)

Expand to show TLE details & history
Last TLE update: 10 hours ago

TLE from 10 hours ago
0 COSMOS 2254
1 22689U 93038C   25260.27977652  .00000026  00000-0  81526-4 0  9994
2 22689  82.5855  18.9872 0011686 205.9741 168.4039 12.64904938487632
Epoch: 2025-09-17T06:42Z
TLE epoch observation values (Epoch: 2025-09-17T06:42:52.691Z)
Latitude
14.25425°
Longitude
-76.30514°
Altitude
1,413.693 km
Speed
7.151 km/s
True Right ascension
01h 23m 29s
True Declination
14° 10' 45"
Sunlit
Object was in full shadow at epoch
Visualization orbit readout
Latitude
Unknown
Longitude
Unknown
Altitude
Unknown
Speed
Unknown
Apparent Right ascension
Unknown
Apparent Declination
Unknown
Sunlit
N/A
Visualization observer readout
Local Sidereal Time
09:52:41
Azimuth
Unknown
Elevation
Unknown
Doppler factor
Unknown
Orbital elements
Apogee altitude
1,409.171 km
Perigee altitude
1,390.992 km
Semi-major axis
7,778.218 km
Eccentricity
0.00117
Inclination
82.5855°
RAAN
18.9872°
Arg. of periapsis
205.9741°
True anomaly
168.43078°
Mean anomaly
168.4039°
Eccentric anomaly
168.41734°
Mean motion
3.1639 °/min
Orbital period
113.78 mins
BSTAR
0.000081526
Loading maneuver chart data...
Computing Atmospheric mass density...
Loading historical data...
Loading historical data...
Loading historical data...
Loading historical data...
Loading historical data...
Loading historical data...
Loading historical data...

Documentation

Showing up to 5 results
|